User: anonymous   Login
Location: Newark
(51.3656°N, 14.2631°E)
Time: 21:44:22
(UTC+00:00)
Language:

LightSail 2 - Orbit

View from above orbital plane
View from above orbital plane
View from above satellite
View from above satellite

Ground track
Ground track

The orbit data is extracted from the following two-line orbital elements,

1 44420U 19036AC  20052.53257405 +.00007994 +00000-0 +17885-2 0  9993
2 44420 024.0113 125.9910 0016083 320.9070 039.0306 14.54510633033271
Epoch (UTC): 21 February 2020 12:46:54
Eccentricity: 0.0016083
inclination: 24.0113°
perigee height: 699 km
apogee height: 722 km
right ascension of ascending node: 125.9910°
argument of perigee: 320.9070°
revolutions per day: 14.54510633
mean anomaly at epoch: 39.0306°
orbit number at epoch: 3327

The dashed part of the orbit path shows where the satellite is in the earth's shadow,  

DLR